| time (UTC) | temp F | wind direction | speed knots | gust knots | rain 1hr in | rain 24hr in | rain mn in | humidity % | barometer mb |
| 20260504175131 | 72 | 242 | 4.3 | 10.4 | 0.00 | 0.00 | 0.00 | 37 | 999.5 |
| 20260504174630 | 72 | 299 | 4.3 | 10.4 | 0.00 | 0.00 | 0.00 | 36 | 999.6 |
| 20260504174130 | 72 | 188 | 4.3 | 8.7 | 0.00 | 0.00 | 0.00 | 37 | 999.6 |
| 20260504173628 | 72 | 248 | 3.5 | 12.2 | 0.00 | 0.00 | 0.00 | 36 | 999.6 |
| 20260504173126 | 72 | 261 | 2.6 | 12.2 | 0.00 | 0.00 | 0.00 | 37 | 999.7 |
| 20260504172627 | 72 | 242 | 1.7 | 7.8 | 0.00 | 0.00 | 0.00 | 36 | 999.7 |
| 20260504172127 | 72 | 226 | 2.6 | 13.0 | 0.00 | 0.00 | 0.00 | 39 | 999.8 |
| 20260504171626 | 71 | 207 | 3.5 | 13.0 | 0.00 | 0.00 | 0.00 | 40 | 999.9 |
| 20260504171122 | 71 | 236 | 3.5 | 12.2 | 0.00 | 0.00 | 0.00 | 39 | 1000.0 |
| 20260504170623 | 71 | 244 | 3.5 | 10.4 | 0.00 | 0.00 | 0.00 | 38 | 1000.0 |
| 20260504170343 | 70 | 222 | 4.3 | 12.2 | 0.00 | 0.00 | 0.00 | 40 | 1000.1 |
| 20260504151149 | 67 | 251 | 4.3 | 11.3 | 0.00 | 0.00 | 0.00 | 42 | 1001.4 |
| 20260504150423 | 67 | 314 | 4.3 | 10.4 | 0.00 | 0.00 | 0.00 | 42 | 1001.5 |
| 20260504141323 | 64 | 200 | 2.6 | 7.8 | 0.00 | 0.00 | 0.00 | 54 | 1001.6 |
| 20260504140817 | 64 | 190 | 1.7 | 4.3 | 0.00 | 0.00 | 0.00 | 56 | 1001.6 |
| 20260504140313 | 64 | 111 | 1.7 | 6.1 | 0.00 | 0.00 | 0.00 | 55 | 1001.6 |
| 20260504130706 | 59 | 210 | 1.7 | 5.2 | 0.00 | 0.00 | 0.00 | 65 | 1002.1 |
| 20260504130158 | 59 | 239 | 1.7 | 4.3 | 0.00 | 0.00 | 0.00 | 66 | 1002.0 |
| 20260504120139 | 51 | 269 | 1.7 | 6.1 | 0.00 | 0.00 | 0.00 | 81 | 1002.2 |
| 20260504110632 | 38 | 245 | 0.0 | 0.0 | 0.00 | 0.00 | 0.00 | 90 | 1002.6 |
| 20260504110133 | 38 | 245 | 0.0 | 0.0 | 0.00 | 0.00 | 0.00 | 90 | 1002.6 |
| 20260504100333 | 36 | 245 | 0.0 | 0.0 | 0.00 | 0.00 | 0.00 | 87 | 1002.5 |
| 20260504081912 | 37 | 245 | 0.0 | 0.0 | 0.00 | 0.00 | 0.00 | 83 | 1002.4 |
| 20260504081848 | 37 | 245 | 0.0 | 0.0 | 0.00 | 0.00 | 0.00 | 82 | 1002.5 |
| 20260504080901 | 37 | 245 | 0.0 | 0.0 | 0.00 | 0.00 | 0.00 | 82 | 1002.5 |
| 20260504080354 | 37 | 245 | 0.0 | 0.0 | 0.00 | 0.00 | 0.00 | 82 | 1002.5 |
| 20260504070242 | 38 | 245 | 0.0 | 0.0 | 0.00 | 0.00 | 0.00 | 81 | 1002.4 |
| 20260504060130 | 39 | 245 | 0.0 | 0.0 | 0.00 | 0.00 | 0.00 | 78 | 1002.4 |
| 20260504050524 | 40 | 245 | 0.0 | 0.0 | 0.00 | 0.00 | 0.00 | 76 | 1002.4 |
| 20260504050018 | 40 | 245 | 0.0 | 0.0 | 0.00 | 0.00 | 0.00 | 75 | 1002.4 |
| 20260504045512 | 40 | 245 | 0.0 | 0.0 | 0.00 | 0.00 | 0.00 | 75 | 1002.4 |
| 20260504045501 | 41 | 245 | 0.0 | 0.0 | 0.00 | 0.00 | 0.00 | 74 | 1002.3 |
| 20260504044509 | 41 | 245 | 0.0 | 0.0 | 0.00 | 0.00 | 0.00 | 73 | 1002.3 |
| 20260504044008 | 41 | 245 | 0.0 | 0.0 | 0.00 | 0.00 | 0.00 | 73 | 1002.3 |
| 20260504043505 | 41 | 245 | 0.0 | 0.0 | 0.00 | 0.00 | 0.00 | 73 | 1002.3 |
| 20260504043004 | 41 | 245 | 0.0 | 0.0 | 0.00 | 0.00 | 0.00 | 72 | 1002.2 |
| 20260504042500 | 41 | 245 | 0.0 | 0.0 | 0.00 | 0.00 | 0.00 | 72 | 1002.2 |
| 20260504041959 | 41 | 245 | 0.0 | 0.0 | 0.00 | 0.00 | 0.00 | 72 | 1002.1 |
| 20260504041457 | 42 | 245 | 0.0 | 0.0 | 0.00 | 0.00 | 0.00 | 72 | 1002.0 |
| 20260504040957 | 42 | 245 | 0.0 | 0.0 | 0.00 | 0.00 | 0.00 | 72 | 1002.0 |
| 20260504040713 | 42 | 245 | 0.0 | 0.0 | 0.00 | 0.00 | 0.00 | 71 | 1002.0 |
| 20260504035953 | 42 | 245 | 0.0 | 0.0 | 0.00 | 0.00 | 0.00 | 71 | 1002.0 |
| 20260504035449 | 42 | 245 | 0.0 | 0.0 | 0.00 | 0.00 | 0.00 | 70 | 1002.0 |
| 20260504034948 | 42 | 245 | 0.0 | 0.0 | 0.00 | 0.00 | 0.00 | 70 | 1001.9 |
| 20260504034713 | 42 | 245 | 0.0 | 0.0 | 0.00 | 0.00 | 0.00 | 70 | 1001.9 |
| 20260504033944 | 43 | 245 | 0.0 | 0.0 | 0.00 | 0.00 | 0.00 | 70 | 1001.8 |
| 20260504033443 | 43 | 245 | 0.0 | 0.0 | 0.00 | 0.00 | 0.00 | 69 | 1001.8 |
| 20260504032945 | 43 | 245 | 0.0 | 0.0 | 0.00 | 0.00 | 0.00 | 69 | 1001.8 |
| 20260504032702 | 43 | 245 | 0.0 | 0.0 | 0.00 | 0.00 | 0.00 | 69 | 1001.7 |
| 20260504032208 | 43 | 245 | 0.0 | 0.0 | 0.00 | 0.00 | 0.00 | 68 | 1001.8 |
| 20260504031441 | 43 | 245 | 0.0 | 0.0 | 0.00 | 0.00 | 0.00 | 67 | 1001.8 |
| 20260504030941 | 44 | 245 | 0.0 | 0.0 | 0.00 | 0.00 | 0.00 | 67 | 1001.7 |
| 20260504030437 | 44 | 245 | 0.0 | 0.0 | 0.00 | 0.00 | 0.00 | 67 | 1001.6 |
| 20260504025930 | 44 | 245 | 0.0 | 0.0 | 0.00 | 0.00 | 0.00 | 66 | 1001.7 |
| 20260504025424 | 44 | 245 | 0.0 | 0.0 | 0.00 | 0.00 | 0.00 | 66 | 1001.6 |
| 20260504024918 | 44 | 245 | 0.0 | 0.0 | 0.00 | 0.00 | 0.00 | 65 | 1001.7 |
| 20260504024640 | 45 | 245 | 0.0 | 0.0 | 0.00 | 0.00 | 0.00 | 64 | 1001.7 |
| 20260504023905 | 45 | 245 | 0.0 | 0.0 | 0.00 | 0.00 | 0.00 | 64 | 1001.8 |
| 20260504023400 | 45 | 245 | 0.0 | 0.0 | 0.00 | 0.00 | 0.00 | 63 | 1001.7 |
| 20260504022853 | 45 | 245 | 0.0 | 0.0 | 0.00 | 0.00 | 0.00 | 63 | 1001.7 |
| 20260504022348 | 46 | 245 | 0.0 | 0.0 | 0.00 | 0.00 | 0.00 | 62 | 1001.7 |
| 20260504022105 | 46 | 245 | 0.0 | 0.0 | 0.00 | 0.00 | 0.00 | 61 | 1001.6 |
| 20260504021336 | 46 | 245 | 0.0 | 0.0 | 0.00 | 0.00 | 0.00 | 60 | 1001.7 |
| 20260504020832 | 47 | 245 | 0.0 | 0.0 | 0.00 | 0.00 | 0.00 | 59 | 1001.7 |
| 20260504020323 | 47 | 245 | 0.0 | 0.0 | 0.00 | 0.00 | 0.00 | 59 | 1001.6 |
| 20260504015819 | 47 | 245 | 0.0 | 0.0 | 0.00 | 0.00 | 0.00 | 58 | 1001.6 |
| 20260504015312 | 48 | 245 | 0.0 | 0.0 | 0.00 | 0.00 | 0.00 | 58 | 1001.6 |
| 20260504015245 | 48 | 245 | 0.0 | 0.0 | 0.00 | 0.00 | 0.00 | 58 | 1001.5 |
| 20260504014259 | 48 | 245 | 0.0 | 0.0 | 0.00 | 0.00 | 0.00 | 57 | 1001.5 |
| 20260504013754 | 49 | 245 | 0.0 | 0.0 | 0.00 | 0.00 | 0.00 | 56 | 1001.5 |
| 20260504013248 | 49 | 245 | 0.0 | 0.0 | 0.00 | 0.00 | 0.00 | 55 | 1001.5 |
| 20260504012741 | 49 | 245 | 0.0 | 0.0 | 0.00 | 0.00 | 0.00 | 54 | 1001.4 |
| 20260504012236 | 50 | 245 | 0.0 | 0.0 | 0.00 | 0.00 | 0.00 | 54 | 1001.4 |
| 20260504011729 | 50 | 245 | 0.0 | 0.0 | 0.00 | 0.00 | 0.00 | 52 | 1001.4 |
| 20260504011224 | 51 | 245 | 0.0 | 0.0 | 0.00 | 0.00 | 0.00 | 50 | 1001.2 |
| 20260504010719 | 51 | 245 | 0.0 | 0.0 | 0.00 | 0.00 | 0.00 | 49 | 1001.2 |
| 20260504010212 | 52 | 245 | 0.0 | 0.0 | 0.00 | 0.00 | 0.00 | 48 | 1001.1 |
| 20260504005706 | 52 | 245 | 0.0 | 0.0 | 0.00 | 0.00 | 0.00 | 47 | 1001.1 |
| 20260504005200 | 53 | 245 | 0.0 | 0.0 | 0.00 | 0.00 | 0.00 | 45 | 1001.0 |
| 20260504004653 | 54 | 245 | 0.0 | 0.0 | 0.00 | 0.00 | 0.00 | 45 | 1001.0 |
| 20260504004147 | 54 | 245 | 0.0 | 0.0 | 0.00 | 0.00 | 0.00 | 44 | 1000.9 |
| 20260504003642 | 55 | 245 | 0.0 | 0.0 | 0.00 | 0.00 | 0.00 | 42 | 1000.9 |
| 20260504003136 | 55 | 245 | 0.0 | 0.0 | 0.00 | 0.00 | 0.00 | 42 | 1000.8 |
| 20260504002631 | 56 | 245 | 0.0 | 0.9 | 0.00 | 0.00 | 0.00 | 41 | 1000.6 |
| 20260504002349 | 56 | 245 | 0.0 | 3.5 | 0.00 | 0.00 | 0.00 | 41 | 1000.6 |
| 20260504001618 | 56 | 245 | 0.9 | 3.5 | 0.00 | 0.00 | 0.00 | 40 | 1000.6 |
| 20260504001112 | 56 | 247 | 0.9 | 2.6 | 0.00 | 0.00 | 0.00 | 40 | 1000.5 |
| 20260504000825 | 56 | 244 | 0.9 | 2.6 | 0.00 | 0.00 | 0.00 | 39 | 1000.5 |
| 20260504000106 | 57 | 246 | 0.9 | 4.3 | 0.00 | 0.00 | 0.00 | 39 | 1000.4 |
| 20260503235605 | 57 | 254 | 0.9 | 4.3 | 0.00 | 0.00 | 0.00 | 39 | 1000.4 |
| 20260503235601 | 57 | 233 | 1.7 | 6.1 | 0.00 | 0.00 | 0.00 | 39 | 1000.3 |
| 20260503234559 | 57 | 265 | 1.7 | 6.1 | 0.00 | 0.00 | 0.00 | 38 | 1000.3 |
| 20260503234059 | 57 | 252 | 1.7 | 6.1 | 0.00 | 0.00 | 0.00 | 38 | 1000.2 |
| 20260503233556 | 58 | 245 | 2.6 | 6.1 | 0.00 | 0.00 | 0.00 | 38 | 1000.3 |
| 20260503233058 | 58 | 252 | 2.6 | 8.7 | 0.00 | 0.00 | 0.00 | 37 | 1000.2 |
| 20260503232556 | 58 | 250 | 2.6 | 8.7 | 0.00 | 0.00 | 0.00 | 37 | 1000.2 |
| 20260503232056 | 58 | 250 | 1.7 | 7.8 | 0.00 | 0.00 | 0.00 | 38 | 1000.1 |
| 20260503231554 | 58 | 238 | 1.7 | 7.8 | 0.00 | 0.00 | 0.00 | 36 | 1000.1 |
| 20260503231320 | 58 | 249 | 1.7 | 7.8 | 0.00 | 0.00 | 0.00 | 37 | 1000.1 |
| 20260503230554 | 58 | 205 | 2.6 | 7.8 | 0.00 | 0.00 | 0.00 | 36 | 1000.1 |
| 20260503230319 | 58 | 229 | 2.6 | 7.0 | 0.00 | 0.00 | 0.00 | 36 | 1000.1 |
| 20260503225554 | 58 | 257 | 3.5 | 12.2 | 0.00 | 0.00 | 0.00 | 35 | 1000.0 |
| 20260503225054 | 58 | 262 | 3.5 | 12.2 | 0.00 | 0.00 | 0.00 | 35 | 1000.0 |
| 20260503224552 | 59 | 292 | 2.6 | 8.7 | 0.00 | 0.00 | 0.00 | 36 | 1000.0 |
| 20260503224054 | 59 | 288 | 1.7 | 7.8 | 0.00 | 0.00 | 0.00 | 36 | 1000.0 |
| 20260503223550 | 59 | 232 | 2.6 | 8.7 | 0.00 | 0.00 | 0.00 | 36 | 1000.0 |
| 20260503223051 | 59 | 292 | 3.5 | 13.0 | 0.00 | 0.00 | 0.00 | 34 | 1000.0 |
| 20260503222548 | 59 | 198 | 2.6 | 13.0 | 0.00 | 0.00 | 0.00 | 34 | 1000.0 |
| 20260503222049 | 60 | 221 | 3.5 | 12.2 | 0.00 | 0.00 | 0.00 | 33 | 1000.0 |
| 20260503221549 | 60 | 300 | 3.5 | 10.4 | 0.00 | 0.00 | 0.00 | 33 | 999.9 |
| 20260503221049 | 60 | 227 | 4.3 | 11.3 | 0.00 | 0.00 | 0.00 | 33 | 999.9 |
| 20260503220549 | 60 | 223 | 2.6 | 11.3 | 0.00 | 0.00 | 0.00 | 34 | 1000.0 |
| 20260503220143 | 61 | 263 | 1.7 | 7.8 | 0.00 | 0.00 | 0.00 | 33 | 999.9 |
| 20260503215044 | 61 | 249 | 3.5 | 12.2 | 0.00 | 0.00 | 0.00 | 34 | 1000.0 |
| 20260503214803 | 61 | 253 | 4.3 | 12.2 | 0.00 | 0.00 | 0.00 | 31 | 999.8 |
| 20260503214307 | 61 | 134 | 2.6 | 8.7 | 0.00 | 0.00 | 0.00 | 31 | 999.8 |
| 20260503213545 | 62 | 237 | 2.6 | 9.6 | 0.00 | 0.00 | 0.00 | 32 | 999.9 |
| 20260503213044 | 61 | 295 | 3.5 | 9.6 | 0.00 | 0.00 | 0.00 | 32 | 999.8 |
| 20260503212810 | 61 | 216 | 2.6 | 10.4 | 0.00 | 0.00 | 0.00 | 34 | 999.8 |
| 20260503212045 | 61 | 225 | 2.6 | 11.3 | 0.00 | 0.00 | 0.00 | 32 | 999.7 |
| 20260503211816 | 62 | 0 | 2.6 | 11.3 | 0.00 | 0.00 | 0.00 | 31 | 999.9 |
| 20260503211047 | 62 | 299 | 3.5 | 15.6 | 0.00 | 0.00 | 0.00 | 34 | 999.9 |
| 20260503210542 | 61 | 25 | 4.3 | 15.6 | 0.00 | 0.00 | 0.00 | 31 | 999.8 |
| 20260503210041 | 61 | 257 | 3.5 | 9.6 | 0.00 | 0.00 | 0.00 | 31 | 999.8 |
| 20260503205809 | 61 | 248 | 3.5 | 12.2 | 0.00 | 0.00 | 0.00 | 34 | 999.9 |
| 20260503205043 | 61 | 148 | 3.5 | 12.2 | 0.00 | 0.00 | 0.00 | 34 | 999.9 |
| 20260503204541 | 62 | 329 | 3.5 | 11.3 | 0.00 | 0.00 | 0.00 | 34 | 1000.0 |
| 20260503204041 | 62 | 339 | 3.5 | 13.9 | 0.00 | 0.00 | 0.00 | 35 | 999.9 |
| 20260503203540 | 62 | 294 | 3.5 | 13.9 | 0.00 | 0.00 | 0.00 | 34 | 1000.1 |
| 20260503203042 | 62 | 236 | 1.7 | 8.7 | 0.00 | 0.00 | 0.00 | 32 | 1000.1 |
| 20260503202540 | 62 | 272 | 2.6 | 9.6 | 0.00 | 0.00 | 0.00 | 34 | 1000.1 |
| 20260503202301 | 62 | 302 | 2.6 | 9.6 | 0.00 | 0.00 | 0.00 | 34 | 1000.0 |
| 20260503201540 | 61 | 284 | 2.6 | 13.0 | 0.00 | 0.00 | 0.00 | 35 | 1000.1 |
| 20260503201040 | 61 | 331 | 2.6 | 13.0 | 0.00 | 0.00 | 0.00 | 35 | 1000.2 |
| 20260503200533 | 61 | 333 | 2.6 | 8.7 | 0.00 | 0.00 | 0.00 | 35 | 1000.3 |
| 20260503200027 | 60 | 252 | 4.3 | 10.4 | 0.00 | 0.00 | 0.00 | 34 | 1000.3 |
| 20260503195521 | 61 | 178 | 4.3 | 10.4 | 0.00 | 0.00 | 0.00 | 34 | 1000.3 |
| 20260503195018 | 61 | 234 | 3.5 | 9.6 | 0.00 | 0.00 | 0.00 | 34 | 1000.4 |
| 20260503194519 | 61 | 159 | 3.5 | 16.5 | 0.00 | 0.00 | 0.00 | 38 | 1000.5 |
| 20260503194019 | 61 | 248 | 4.3 | 16.5 | 0.00 | 0.00 | 0.00 | 36 | 1000.6 |
| 20260503193737 | 60 | 227 | 2.6 | 10.4 | 0.00 | 0.00 | 0.00 | 35 | 1000.5 |
| 20260503193019 | 61 | 214 | 3.5 | 11.3 | 0.00 | 0.00 | 0.00 | 38 | 1000.6 |
| 20260503192518 | 60 | 130 | 4.3 | 13.0 | 0.00 | 0.00 | 0.00 | 39 | 1000.6 |
| 20260503192020 | 60 | 5 | 3.5 | 13.0 | 0.00 | 0.00 | 0.00 | 35 | 1000.8 |
| 20260503191518 | 60 | 244 | 3.5 | 9.6 | 0.00 | 0.00 | 0.00 | 38 | 1000.7 |
| 20260503191248 | 60 | 225 | 3.5 | 9.6 | 0.00 | 0.00 | 0.00 | 36 | 1000.9 |
| 20260503190520 | 60 | 196 | 3.5 | 12.2 | 0.00 | 0.00 | 0.00 | 36 | 1000.8 |
| 20260503190241 | 60 | 311 | 3.5 | 12.2 | 0.00 | 0.00 | 0.00 | 36 | 1000.8 |
| 20260503185519 | 60 | 235 | 3.5 | 13.0 | 0.00 | 0.00 | 0.00 | 36 | 1000.9 |
| 20260503185252 | 60 | 297 | 4.3 | 13.0 | 0.00 | 0.00 | 0.00 | 35 | 1001.0 |
| 20260503184519 | 60 | 214 | 4.3 | 13.9 | 0.00 | 0.00 | 0.00 | 37 | 1000.9 |
| 20260503184018 | 60 | 13 | 3.5 | 13.9 | 0.00 | 0.00 | 0.00 | 38 | 1001.1 |
| 20260503183735 | 60 | 255 | 4.3 | 15.6 | 0.00 | 0.00 | 0.00 | 36 | 1001.0 |
| 20260503183007 | 59 | 319 | 5.2 | 15.6 | 0.00 | 0.00 | 0.00 | 36 | 1001.1 |
| 20260503182501 | 60 | 252 | 4.3 | 13.9 | 0.00 | 0.00 | 0.00 | 35 | 1001.1 |
| 20260503181955 | 60 | 318 | 4.3 | 12.2 | 0.00 | 0.00 | 0.00 | 37 | 1001.1 |
| 20260503181715 | 60 | 159 | 3.5 | 13.0 | 0.00 | 0.00 | 0.00 | 35 | 1001.3 |
| 20260503180943 | 60 | 290 | 3.5 | 13.0 | 0.00 | 0.00 | 0.00 | 39 | 1001.1 |
| 20260503180659 | 59 | 290 | 3.5 | 13.0 | 0.00 | 0.00 | 0.00 | 38 | 1001.2 |
| 20260503175931 | 59 | 85 | 4.3 | 12.2 | 0.00 | 0.00 | 0.00 | 37 | 1001.1 |